Time,TemperatureF,DewpointF,PressureIn,WindDirection,WindDirectionDegrees,WindSpeedMPH,WindSpeedGustMPH,Humidity,HourlyPrecipIn,Conditions,Clouds,dailyrainin,SoftwareType,DateUTC
2013-09-09 00:09:00,52.7,44.6,30.02,SSE,157,0.0,-999.0,74,-99.99,,,0.00,Acu-Link.com,2013-09-09 04:09:00,
2013-09-09 00:25:00,50.9,44.0,30.03,South,180,0.0,-999.0,77,-99.99,,,0.00,Acu-Link.com,2013-09-09 04:25:00,
2013-09-09 00:40:00,49.3,44.7,30.03,SSW,202,0.0,-999.0,84,-99.99,,,0.00,Acu-Link.com,2013-09-09 04:40:00,
2013-09-09 00:55:00,48.0,44.0,30.04,ESE,112,0.0,-999.0,86,-99.99,,,0.00,Acu-Link.com,2013-09-09 04:55:00,
2013-09-09 01:11:00,47.5,44.1,30.03,East,90,0.0,-999.0,88,-99.99,,,0.00,Acu-Link.com,2013-09-09 05:11:00,
2013-09-09 01:26:00,46.8,44.0,30.04,NE,45,0.0,-999.0,90,-99.99,,,0.00,Acu-Link.com,2013-09-09 05:26:00,
2013-09-09 01:41:00,45.9,43.7,30.05,SW,225,0.0,-999.0,92,-99.99,,,0.00,Acu-Link.com,2013-09-09 05:41:00,
2013-09-09 01:57:00,45.0,43.1,30.04,SSE,157,0.0,-999.0,93,-99.99,,,0.00,Acu-Link.com,2013-09-09 05:57:00,
2013-09-09 02:12:00,45.5,43.9,30.05,SW,225,0.0,-999.0,94,-99.99,,,0.00,Acu-Link.com,2013-09-09 06:12:00,
2013-09-09 02:27:00,45.0,43.9,30.05,South,180,0.0,-999.0,96,-99.99,,,0.00,Acu-Link.com,2013-09-09 06:27:00,
2013-09-09 02:43:00,44.2,43.1,30.06,SW,225,0.0,-999.0,96,-99.99,,,0.00,Acu-Link.com,2013-09-09 06:43:00,
2013-09-09 02:58:00,44.1,43.3,30.05,South,180,0.0,-999.0,97,-99.99,,,0.00,Acu-Link.com,2013-09-09 06:58:00,
2013-09-09 03:13:00,43.5,43.0,30.06,NE,45,0.0,-999.0,98,-99.99,,,0.00,Acu-Link.com,2013-09-09 07:13:00,
2013-09-09 03:29:00,43.2,42.9,30.06,South,180,0.0,-999.0,99,-99.99,,,0.00,Acu-Link.com,2013-09-09 07:29:00,
2013-09-09 03:44:00,43.2,42.9,30.06,North,0,1.1,-999.0,99,-99.99,,,0.00,Acu-Link.com,2013-09-09 07:44:00,
2013-09-09 03:59:00,42.4,41.9,30.07,WSW,247,0.0,-999.0,98,-99.99,,,0.00,Acu-Link.com,2013-09-09 07:59:00,
2013-09-09 04:14:00,42.4,42.1,30.07,SSE,157,0.0,-999.0,99,-99.99,,,0.00,Acu-Link.com,2013-09-09 08:14:00,
2013-09-09 04:30:00,42.3,42.0,30.07,ESE,112,0.0,-999.0,99,-99.99,,,0.00,Acu-Link.com,2013-09-09 08:30:00,
2013-09-09 04:45:00,41.7,41.4,30.09,SW,225,0.0,-999.0,99,-99.99,,,0.00,Acu-Link.com,2013-09-09 08:45:00,
2013-09-09 05:00:00,41.2,40.9,30.09,NE,45,0.0,-999.0,99,-99.99,,,0.00,Acu-Link.com,2013-09-09 09:00:00,
2013-09-09 05:15:00,40.8,40.5,30.10,NE,45,0.0,-999.0,99,-99.99,,,0.00,Acu-Link.com,2013-09-09 09:15:00,
2013-09-09 05:30:00,40.6,40.3,30.11,East,90,1.1,-999.0,99,-99.99,,,0.00,Acu-Link.com,2013-09-09 09:30:00,
2013-09-09 05:45:00,40.3,40.0,30.11,NE,45,0.0,-999.0,99,-99.99,,,0.00,Acu-Link.com,2013-09-09 09:45:00,
2013-09-09 06:00:00,40.3,40.0,30.12,South,180,1.1,-999.0,99,-99.99,,,0.00,Acu-Link.com,2013-09-09 10:00:00,
2013-09-09 06:16:00,40.3,40.0,30.11,NNE,22,0.0,-999.0,99,-99.99,,,0.00,Acu-Link.com,2013-09-09 10:16:00,
2013-09-09 06:31:00,39.9,39.6,30.12,South,180,0.0,-999.0,99,-99.99,,,0.00,Acu-Link.com,2013-09-09 10:31:00,
2013-09-09 06:46:00,39.6,39.3,30.13,East,90,1.1,-999.0,99,-99.99,,,0.00,Acu-Link.com,2013-09-09 10:46:00,
2013-09-09 07:02:00,40.6,40.3,30.13,ENE,67,1.7,-999.0,99,-99.99,,,0.00,Acu-Link.com,2013-09-09 11:02:00,
2013-09-09 07:17:00,42.4,42.1,30.13,ENE,67,0.0,-999.0,99,-99.99,,,0.00,Acu-Link.com,2013-09-09 11:17:00,
2013-09-09 07:32:00,46.0,45.7,30.14,ENE,67,0.0,-999.0,99,-99.99,,,0.00,Acu-Link.com,2013-09-09 11:32:00,
2013-09-09 07:48:00,48.4,46.2,30.14,ESE,112,0.0,-999.0,92,-99.99,,,0.00,Acu-Link.com,2013-09-09 11:48:00,
2013-09-09 08:03:00,50.7,45.1,30.15,NE,45,1.1,-999.0,81,-99.99,,,0.00,Acu-Link.com,2013-09-09 12:03:00,
2013-09-09 08:18:00,52.3,45.0,30.15,NNW,337,1.7,-999.0,76,-99.99,,,0.00,Acu-Link.com,2013-09-09 12:18:00,
2013-09-09 08:34:00,49.1,44.5,30.15,East,90,2.2,-999.0,84,-99.99,,,0.00,Acu-Link.com,2013-09-09 12:34:00,
2013-09-09 08:49:00,51.6,45.3,30.14,NNE,22,1.1,-999.0,79,-99.99,,,0.00,Acu-Link.com,2013-09-09 12:49:00,
2013-09-09 09:04:00,51.6,45.3,30.14,North,0,2.2,-999.0,79,-99.99,,,0.00,Acu-Link.com,2013-09-09 13:04:00,
2013-09-09 09:19:00,55.4,46.5,30.14,SSW,202,1.7,-999.0,72,-99.99,,,0.00,Acu-Link.com,2013-09-09 13:19:00,
2013-09-09 09:35:00,57.2,46.7,30.14,SSE,157,0.0,-999.0,68,-99.99,,,0.00,Acu-Link.com,2013-09-09 13:35:00,
2013-09-09 09:50:00,57.0,47.3,30.14,ESE,112,1.7,-999.0,70,-99.99,,,0.00,Acu-Link.com,2013-09-09 13:50:00,
2013-09-09 10:05:00,57.9,47.0,30.14,ESE,112,0.0,-999.0,67,-99.99,,,0.00,Acu-Link.com,2013-09-09 14:05:00,
2013-09-09 10:21:00,60.4,49.4,30.13,NE,45,0.0,-999.0,67,-99.99,,,0.00,Acu-Link.com,2013-09-09 14:21:00,
2013-09-09 10:36:00,61.5,48.8,30.13,West,270,1.7,-999.0,63,-99.99,,,0.00,Acu-Link.com,2013-09-09 14:36:00,
2013-09-09 10:51:00,61.2,48.1,30.13,NE,45,2.7,-999.0,62,-99.99,,,0.00,Acu-Link.com,2013-09-09 14:51:00,
2013-09-09 11:07:00,64.2,48.2,30.12,SSW,202,2.7,-999.0,56,-99.99,,,0.00,Acu-Link.com,2013-09-09 15:07:00,
2013-09-09 11:22:00,65.5,48.9,30.12,SW,225,2.7,-999.0,55,-99.99,,,0.00,Acu-Link.com,2013-09-09 15:22:00,
2013-09-09 11:37:00,64.8,48.2,30.11,East,90,1.7,-999.0,55,-99.99,,,0.00,Acu-Link.com,2013-09-09 15:37:00,
2013-09-09 11:53:00,65.7,49.6,30.13,SSW,202,4.7,-999.0,56,-99.99,,,0.00,Acu-Link.com,2013-09-09 15:53:00,
2013-09-09 12:08:00,65.1,50.0,30.11,SSE,157,3.7,-999.0,58,-99.99,,,0.00,Acu-Link.com,2013-09-09 16:08:00,
2013-09-09 12:23:00,67.6,50.9,30.10,NNW,337,8.9,-999.0,55,-99.99,,,0.00,Acu-Link.com,2013-09-09 16:23:00,
2013-09-09 12:39:00,68.2,51.9,30.09,East,90,2.2,-999.0,56,-99.99,,,0.00,Acu-Link.com,2013-09-09 16:39:00,
2013-09-09 12:54:00,68.2,52.4,30.09,East,90,3.2,-999.0,57,-99.99,,,0.00,Acu-Link.com,2013-09-09 16:54:00,
2013-09-09 13:09:00,72.5,53.3,30.08,NW,315,4.2,-999.0,51,-99.99,,,0.00,Acu-Link.com,2013-09-09 17:09:00,
2013-09-09 13:24:00,73.0,53.8,30.08,West,270,7.8,-999.0,51,-99.99,,,0.00,Acu-Link.com,2013-09-09 17:24:00,
2013-09-09 13:39:00,70.5,53.0,30.06,NNW,337,4.7,-999.0,54,-99.99,,,0.00,Acu-Link.com,2013-09-09 17:39:00,
2013-09-09 13:54:00,72.0,53.9,30.07,West,270,5.3,-999.0,53,-99.99,,,0.00,Acu-Link.com,2013-09-09 17:54:00,
2013-09-09 14:09:00,73.2,54.0,30.07,South,180,2.7,-999.0,51,-99.99,,,0.00,Acu-Link.com,2013-09-09 18:09:00,
2013-09-09 14:24:00,71.1,54.1,30.07,ESE,112,4.2,-999.0,55,-99.99,,,0.00,Acu-Link.com,2013-09-09 18:24:00,
2013-09-09 14:40:00,74.1,55.9,30.05,NW,315,6.3,-999.0,53,-99.99,,,0.00,Acu-Link.com,2013-09-09 18:40:00,
2013-09-09 14:55:00,73.0,54.3,30.06,West,270,3.7,-999.0,52,-99.99,,,0.00,Acu-Link.com,2013-09-09 18:55:00,
2013-09-09 15:10:00,74.5,55.7,30.05,SSE,157,3.2,-999.0,52,-99.99,,,0.00,Acu-Link.com,2013-09-09 19:10:00,
2013-09-09 15:25:00,74.7,55.4,30.03,SW,225,4.7,-999.0,51,-99.99,,,0.00,Acu-Link.com,2013-09-09 19:25:00,
2013-09-09 15:40:00,73.8,56.1,30.03,WNW,292,7.8,-999.0,54,-99.99,,,0.00,Acu-Link.com,2013-09-09 19:40:00,
2013-09-09 15:56:00,73.4,55.7,30.03,NE,45,6.8,-999.0,54,-99.99,,,0.00,Acu-Link.com,2013-09-09 19:56:00,
2013-09-09 16:11:00,74.5,55.7,30.02,SSE,157,7.3,-999.0,52,-99.99,,,0.00,Acu-Link.com,2013-09-09 20:11:00,
2013-09-09 16:26:00,76.1,56.1,30.01,WNW,292,6.3,-999.0,50,-99.99,,,0.00,Acu-Link.com,2013-09-09 20:26:00,
2013-09-09 16:41:00,73.9,55.7,30.01,West,270,3.7,-999.0,53,-99.99,,,0.00,Acu-Link.com,2013-09-09 20:41:00,
2013-09-09 16:56:00,73.0,55.4,30.02,SW,225,2.2,-999.0,54,-99.99,,,0.00,Acu-Link.com,2013-09-09 20:56:00,
2013-09-09 17:11:00,73.2,56.1,30.01,East,90,4.2,-999.0,55,-99.99,,,0.00,Acu-Link.com,2013-09-09 21:11:00,
2013-09-09 17:27:00,73.4,56.7,30.00,SSE,157,3.2,-999.0,56,-99.99,,,0.00,Acu-Link.com,2013-09-09 21:27:00,
2013-09-09 17:42:00,72.9,56.3,30.01,NNE,22,2.2,-999.0,56,-99.99,,,0.00,Acu-Link.com,2013-09-09 21:42:00,
2013-09-09 17:57:00,71.6,56.0,30.00,SSW,202,5.8,-999.0,58,-99.99,,,0.00,Acu-Link.com,2013-09-09 21:57:00,
2013-09-09 18:12:00,71.2,56.1,30.00,West,270,2.7,-999.0,59,-99.99,,,0.00,Acu-Link.com,2013-09-09 22:12:00,
2013-09-09 18:27:00,70.9,55.8,30.01,ENE,67,0.0,-999.0,59,-99.99,,,0.00,Acu-Link.com,2013-09-09 22:27:00,
2013-09-09 18:43:00,70.3,56.2,30.02,NW,315,1.1,-999.0,61,-99.99,,,0.00,Acu-Link.com,2013-09-09 22:43:00,
2013-09-09 18:58:00,70.0,56.4,30.01,East,90,3.2,-999.0,62,-99.99,,,0.00,Acu-Link.com,2013-09-09 22:58:00,
2013-09-09 19:13:00,69.6,56.0,30.01,West,270,2.7,-999.0,62,-99.99,,,0.00,Acu-Link.com,2013-09-09 23:13:00,
2013-09-09 19:29:00,69.4,56.7,30.00,SW,225,1.1,-999.0,64,-99.99,,,0.00,Acu-Link.com,2013-09-09 23:29:00,
2013-09-09 19:44:00,69.1,56.8,30.02,NNW,337,0.0,-999.0,65,-99.99,,,0.00,Acu-Link.com,2013-09-09 23:44:00,
2013-09-09 19:59:00,68.9,57.1,30.03,West,270,1.7,-999.0,66,-99.99,,,0.00,Acu-Link.com,2013-09-09 23:59:00,
2013-09-09 20:15:00,68.5,57.1,30.02,NNE,22,0.0,-999.0,67,-99.99,,,0.00,Acu-Link.com,2013-09-10 00:15:00,
2013-09-09 20:30:00,68.2,57.6,30.02,NNW,337,0.0,-999.0,69,-99.99,,,0.00,Acu-Link.com,2013-09-10 00:30:00,
2013-09-09 20:45:00,67.8,58.0,30.03,North,0,0.0,-999.0,71,-99.99,,,0.00,Acu-Link.com,2013-09-10 00:45:00,
2013-09-09 21:00:00,66.7,58.9,30.02,NNW,337,0.0,-999.0,76,-99.99,,,0.00,Acu-Link.com,2013-09-10 01:00:00,
2013-09-09 21:16:00,66.0,59.6,30.03,NNE,22,0.0,-999.0,80,-99.99,,,0.00,Acu-Link.com,2013-09-10 01:16:00,
2013-09-09 21:31:00,65.1,60.5,30.03,NNE,22,1.1,-999.0,85,-99.99,,,0.00,Acu-Link.com,2013-09-10 01:31:00,
2013-09-09 21:46:00,64.8,60.5,30.03,NNE,22,0.0,-999.0,86,-99.99,,,0.00,Acu-Link.com,2013-09-10 01:46:00,
2013-09-09 22:01:00,64.4,61.4,30.03,NNE,22,0.0,-999.0,90,-99.99,,,0.00,Acu-Link.com,2013-09-10 02:01:00,
2013-09-09 22:17:00,64.0,61.3,30.02,North,0,0.0,-999.0,91,-99.99,,,0.00,Acu-Link.com,2013-09-10 02:17:00,
2013-09-09 22:32:00,63.9,61.5,30.03,North,0,0.0,-999.0,92,-99.99,,,0.00,Acu-Link.com,2013-09-10 02:32:00,
2013-09-09 22:47:00,63.3,62.1,30.02,NNE,22,0.0,-999.0,96,-99.99,,,0.01,Acu-Link.com,2013-09-10 02:47:00,
2013-09-09 23:02:00,62.8,61.9,30.02,NNE,22,1.1,-999.0,97,-99.99,,,0.02,Acu-Link.com,2013-09-10 03:02:00,
2013-09-09 23:17:00,62.8,61.9,30.03,NE,45,2.2,-999.0,97,-99.99,,,0.02,Acu-Link.com,2013-09-10 03:17:00,
2013-09-09 23:33:00,62.4,61.5,30.03,NNE,22,0.0,-999.0,97,-99.99,,,0.02,Acu-Link.com,2013-09-10 03:33:00,
2013-09-09 23:48:00,62.4,61.5,30.03,NE,45,2.2,-999.0,97,-99.99,,,0.04,Acu-Link.com,2013-09-10 03:48:00,